Location: Shenandoah County Park
(38.9356°N, 78.4524°W)
Time: 06:54:03
(UTC-04:00)

Vanguard 1 Rocket - Pass Details

Date: 11 February 2023
Orbit: 652 x 4223 km, 34.3° (Epoch: 26 March)

Event Time Altitude Azimuth Distance (km) Brightness Sun altitude
Rises 17:29:35 0° 279° (W) 6,117 12.9 2.3°
Reaches altitude 10° 17:33:47 10° 269° (W) 5,567 13.1 1.5°
Maximum altitude 17:48:31 31° 216° (SW) 5,239 12.0 -1.2°
Drops below altitude 10° 18:08:32 10° 165° (SSE) 7,418 12.0 -5.0°
Sets 18:15:40 0° 156° (SSE) 8,364 12.2 -6.3°
